Location: Dappach
(48.9767°N, 9.6998°E)
Time: 20:34:18
(UTC+00:00)

Nimbus 7 Rocket - Pass Details

Date: 23 May 2024
Orbit: 922 x 963 km, 99.4° (Epoch: 24 June)

Event Time Altitude Azimuth Distance (km) Brightness Sun altitude
Rises 00:25:06 0° 14° (NNE) 3,621 9.2 -18.8°
Reaches altitude 10° 00:27:33 10° 14° (NNE) 2,678 8.1 -18.7°
Maximum altitude 00:33:33 80° 289° (WNW) 974 4.4 -18.4°
Enters shadow 00:36:44 30° 206° (SSW) 1,650 5.1 -18.2°
